STARLINK-34930

Last updated on Mon Oct 20 2025 00:02:06 GMT+0000 (Coordinated Universal Time)

1 65688U 25212N 25292.23035008 -.00410266 00000+0 -82418-2 0 9991 2 65688 53.1581 282.8653 0003254 12.3009 347.8078 15.47591154 5588
UTC large
Height (km)
Speed (km/s)
/
Latitude / Longitude
Inclination (degrees)
Orbital Period (minutes)
Azimuth
Elevation
Range (km)
Doppler Factor

Next 0 passes for location: London (51.5072 / 0.1276)

Sorry there are no passes over London.